Weather History for KEST - October, 2012

Change the Weather History Date:

Monday, October 22, 2012

  Actual Average Record
Temperature  
Mean Temperature 57 °F 45 °F  
Max Temperature 65 °F 56 °F 80 °F (1963)
Min Temperature 48 °F 34 °F 18 °F (1976)
Degree Days  
Heating Degree Days 8 20  
Month to date heating degree days 371 341  
Since 1 July heating degree days 568 549  
Cooling Degree Days 0 0  
Month to date cooling degree days 0 4  
Year to date cooling degree days 886 591  
Growing Degree Days 6 (Base 50)    
Moisture  
Dew Point 50 °F    
Average Humidity 75    
Maximum Humidity 90    
Minimum Humidity 60    
Precipitation  
Precipitation 0.00 in 0.05 in 1.29 in (2008)
Month to date precipitation 0.39 1.76  
Sea Level Pressure  
Sea Level Pressure 29.84 in    
Wind  
Wind Speed 11 mph (NE)    
Max Wind Speed 16 mph    
Max Gust Speed 21 mph    
Visibility 8 miles    
Events      
T = Trace of Precipitation, MM = Missing Value Source: NWS Daily Summary

Daily Weather History Graph

Daily Weather History Graph

Search for Another Location

Airport or City:

Trip Planner

Search our weather history database for the weather conditions in past years. The results will help you decide how hot, cold, wet, or windy it might be!

Date:

Astronomy

Oct. 22, 2012 Rise Set
Actual Time 7:42 AM CDT 6:23 PM CDT
Civil Twilight 7:13 AM CDT 6:52 PM CDT
Nautical Twilight 6:39 AM CDT 7:26 PM CDT
Astronomical Twilight 6:06 AM CDT 7:59 PM CDT
Moon 2:43 PM CDT (10/22) 12:18 AM CDT (10/22)
Length of Visible Light 11h 39m
Length of Day
10h 41m
First Quarter, 56% of the Moon is Illuminated
Oct 22
First Quarter
Oct 29
Full
Nov 6
Last Quarter
Nov 13
New
Nov 20
First Quarter

Hourly Weather History & Observations

Time (CDT) Temp. Dew Point Humidity Pressure Visibility Wind Dir Wind Speed Gust Speed Precip Events Conditions
12:52 AM 50.0 °F 46.0 °F 86% 29.88 in 8.0 mi NNE 10.4 mph - N/A   Overcast
2:52 AM 48.9 °F 45.0 °F 86% 29.85 in 8.0 mi North 10.4 mph - N/A   Partly Cloudy
3:52 AM 48.9 °F 45.0 °F 86% 29.85 in 8.0 mi North 10.4 mph - N/A   Overcast
4:52 AM 48.9 °F 44.1 °F 83% 29.85 in 8.0 mi North 11.5 mph - N/A   Mostly Cloudy
5:38 AM 48.2 °F 44.6 °F 87% 29.86 in 8.0 mi North 11.5 mph - N/A   Mostly Cloudy
9:34 AM 51.8 °F 44.6 °F 76% 29.88 in 9.0 mi North 12.7 mph - N/A   Mostly Cloudy
9:52 AM 51.1 °F 44.1 °F 77% 29.89 in 9.0 mi NNE 13.8 mph - N/A   Mostly Cloudy
10:52 AM 55.0 °F 46.0 °F 72% 29.89 in 9.0 mi NNE 13.8 mph - N/A   Mostly Cloudy
11:04 AM 53.6 °F 46.4 °F 77% 29.88 in 9.0 mi NNE 12.7 mph - N/A   Overcast
11:52 AM 57.9 °F 48.0 °F 70% 29.87 in 9.0 mi NNE 12.7 mph - N/A   Overcast
12:17 PM 60.8 °F 48.2 °F 63% 29.87 in 9.0 mi North 9.2 mph - N/A   Overcast
12:32 PM 59.0 °F 48.2 °F 67% 29.87 in 9.0 mi NNE 10.4 mph - N/A   Overcast
12:52 PM 60.1 °F 48.9 °F 67% 29.87 in 9.0 mi NE 9.2 mph - N/A   Overcast
1:52 PM 60.1 °F 50.0 °F 69% 29.86 in 8.0 mi NNE 10.4 mph - N/A   Overcast
3:13 PM 64.4 °F 51.8 °F 64% 29.83 in 9.0 mi NNE 13.8 mph - N/A   Scattered Clouds
3:32 PM 64.4 °F 51.8 °F 64% 29.83 in 8.0 mi NE 12.7 mph - N/A   Mostly Cloudy
3:52 PM 64.0 °F 53.1 °F 67% 29.82 in 8.0 mi NE 12.7 mph - N/A   Overcast
4:13 PM 64.4 °F 53.6 °F 68% 29.82 in 8.0 mi NE 10.4 mph - N/A   Overcast
4:52 PM 64.0 °F 53.1 °F 67% 29.83 in 8.0 mi NE 11.5 mph - N/A   Overcast
5:52 PM 63.0 °F 54.0 °F 72% 29.83 in 7.0 mi ENE 10.4 mph - N/A   Mostly Cloudy
6:52 PM 61.0 °F 53.1 °F 75% 29.83 in 9.0 mi NE 12.7 mph - N/A   Mostly Cloudy
8:10 PM 59.0 °F 53.6 °F 82% 29.83 in 6.0 mi ENE 12.7 mph - N/A   Haze
8:52 PM 59.0 °F 55.9 °F 90% 29.82 in 5.0 mi ENE 11.5 mph - N/A   Overcast
9:12 PM 59.0 °F 55.4 °F 88% 29.81 in 4.0 mi ENE 15.0 mph - N/A   Overcast
11:37 PM 60.8 °F 57.2 °F 88% 29.77 in 5.0 mi East 9.2 mph - N/A   Overcast
11:48 PM 60.8 °F 57.2 °F 88% 29.77 in 5.0 mi ENE 10.4 mph - N/A   Overcast
11:52 PM 61.0 °F 57.9 °F 90% 29.77 in 5.0 mi East 10.4 mph - N/A   Overcast